Schneifelwetter: Wetterstation Hallschlag, 537 m . NN
Wetterdaten: Montag, 13.12.2010
Datum Zeit Temp. A. Feuchte A. Luftdruck Regen Wind Richtung Richtung Sonnenschein Helligkeit T Regen Taupunkt Windchill
13.12.2010 00:01 -5,0 C 88 % 1017 hPa 0,0 l/m 28,1 km/h (4 Bft) N 5 0 min 0 lux 0,00 min -6,7 C -19,7 C
13.12.2010 00:16 -5,3 C 87 % 1017 hPa 0,0 l/m 29,6 km/h (5 Bft) N 5 0 min 0 lux 0,00 min -7,1 C -20,7 C
13.12.2010 00:31 -5,4 C 87 % 1017 hPa 0,0 l/m 28,0 km/h (4 Bft) N 5 0 min 0 lux 0,00 min -7,2 C -20,3 C
13.12.2010 00:46 -5,5 C 87 % 1017 hPa 0,0 l/m 35,1 km/h (5 Bft) N 5 0 min 0 lux 0,00 min -7,3 C -22,8 C
13.12.2010 01:01 -5,5 C 87 % 1017 hPa 0,0 l/m 25,0 km/h (4 Bft) N 5 0 min 0 lux 0,00 min -7,3 C -19,2 C
13.12.2010 01:16 -5,5 C 87 % 1017 hPa 0,0 l/m 32,7 km/h (5 Bft) N 5 0 min 0 lux 0,00 min -7,3 C -22,1 C
13.12.2010 01:31 -5,5 C 87 % 1017 hPa 0,0 l/m 33,6 km/h (5 Bft) N 5 0 min 0 lux 0,00 min -7,3 C -22,3 C
13.12.2010 01:46 -5,7 C 87 % 1017 hPa 0,0 l/m 24,7 km/h (4 Bft) N 5 0 min 0 lux 0,00 min -7,5 C -19,3 C
13.12.2010 02:01 -5,8 C 88 % 1017 hPa 0,0 l/m 31,1 km/h (5 Bft) N 5 0 min 0 lux 0,00 min -7,5 C -21,9 C
13.12.2010 02:16 -6,0 C 87 % 1018 hPa 0,0 l/m 28,9 km/h (5 Bft) N 5 0 min 0 lux 0,00 min -7,8 C -21,4 C
13.12.2010 02:31 -6,2 C 87 % 1018 hPa 0,0 l/m 27,3 km/h (4 Bft) N 5 0 min 0 lux 0,00 min -8,0 C -21,1 C
13.12.2010 02:46 -6,5 C 87 % 1018 hPa 0,0 l/m 24,2 km/h (4 Bft) N 5 0 min 0 lux 0,00 min -8,3 C -20,2 C
13.12.2010 03:01 -6,8 C 87 % 1018 hPa 0,0 l/m 26,6 km/h (4 Bft) N 5 0 min 0 lux 0,00 min -8,6 C -21,6 C
13.12.2010 03:16 -7,0 C 88 % 1018 hPa 0,0 l/m 23,7 km/h (4 Bft) N 5 0 min 0 lux 0,00 min -8,6 C -20,6 C
13.12.2010 03:31 -7,2 C 88 % 1018 hPa 0,0 l/m 25,1 km/h (4 Bft) N 5 0 min 0 lux 0,00 min -8,8 C -21,5 C
13.12.2010 03:46 -7,3 C 89 % 1018 hPa 0,0 l/m 22,3 km/h (4 Bft) N 5 0 min 0 lux 0,00 min -8,8 C -20,3 C
13.12.2010 04:01 -7,4 C 89 % 1018 hPa 0,0 l/m 25,3 km/h (4 Bft) N 5 0 min 0 lux 0,00 min -8,9 C -21,9 C
13.12.2010 04:16 -7,7 C 89 % 1018 hPa 0,0 l/m 16,8 km/h (3 Bft) N 5 0 min 0 lux 0,00 min -9,2 C -17,6 C
13.12.2010 04:31 -8,0 C 90 % 1018 hPa 0,0 l/m 15,1 km/h (3 Bft) N 5 0 min 0 lux 0,00 min -9,3 C -16,7 C
13.12.2010 04:46 -8,3 C 90 % 1018 hPa 0,0 l/m 14,2 km/h (3 Bft) N 5 0 min 0 lux 0,00 min -9,6 C -16,4 C
13.12.2010 05:01 -8,6 C 91 % 1018 hPa 0,0 l/m 14,1 km/h (3 Bft) N 5 0 min 0 lux 0,00 min -9,8 C -16,7 C
13.12.2010 05:16 -9,0 C 91 % 1018 hPa 0,0 l/m 9,2 km/h (2 Bft) N 5 0 min 0 lux 0,00 min -10,2 C -12,5 C
13.12.2010 05:31 -9,1 C 91 % 1018 hPa 0,0 l/m 8,8 km/h (2 Bft) N 5 0 min 0 lux 0,00 min -10,3 C -12,2 C
13.12.2010 05:46 -9,2 C 92 % 1019 hPa 0,0 l/m 9,0 km/h (2 Bft) N 5 0 min 0 lux 0,00 min -10,3 C -12,5 C
13.12.2010 06:01 -9,3 C 93 % 1019 hPa 0,0 l/m 11,0 km/h (2 Bft) N 5 0 min 0 lux 0,00 min -10,2 C -14,8 C
13.12.2010 06:16 -9,5 C 93 % 1019 hPa 0,0 l/m 11,8 km/h (2 Bft) N 5 0 min 0 lux 0,00 min -10,4 C -15,8 C
13.12.2010 06:31 -9,7 C 93 % 1019 hPa 0,0 l/m 9,4 km/h (2 Bft) N 5 0 min 0 lux 0,00 min -10,6 C -13,5 C
13.12.2010 06:46 -9,5 C 94 % 1019 hPa 0,0 l/m 13,3 km/h (3 Bft) N 5 0 min 0 lux 0,00 min -10,3 C -17,1 C
13.12.2010 07:01 -9,5 C 94 % 1019 hPa 0,0 l/m 19,8 km/h (3 Bft) N 5 0 min 0 lux 0,00 min -10,3 C -21,8 C
13.12.2010 07:16 -9,5 C 95 % 1019 hPa 0,0 l/m 12,9 km/h (3 Bft) N 5 0 min 0 lux 0,00 min -10,1 C -16,8 C
13.12.2010 07:31 -9,6 C 94 % 1020 hPa 0,0 l/m 13,5 km/h (3 Bft) N 5 0 min 0 lux 0,00 min -10,4 C -17,4 C
13.12.2010 07:46 -9,7 C 94 % 1020 hPa 0,0 l/m 9,4 km/h (2 Bft) N 5 0 min 0 lux 0,00 min -10,5 C -13,5 C
13.12.2010 08:01 -9,5 C 95 % 1020 hPa 0,0 l/m 16,8 km/h (3 Bft) N 5 0 min 0 lux 0,00 min -10,1 C -19,8 C
13.12.2010 08:17 -9,5 C 94 % 1020 hPa 0,0 l/m 12,3 km/h (3 Bft) N 5 0 min 206 lux 0,00 min -10,3 C -16,2 C
13.12.2010 08:32 -9,7 C 94 % 1020 hPa 0,0 l/m 7,5 km/h (2 Bft) N 5 0 min 782 lux 0,00 min -10,5 C -11,2 C
13.12.2010 08:46 -10,1 C 93 % 1020 hPa 0,0 l/m 3,9 km/h (1 Bft) N 5 0 min 1,79 klux 0,00 min -11,0 C -10,1 C
13.12.2010 09:01 -10,6 C 93 % 1020 hPa 0,0 l/m 0,4 km/h (0 Bft) N 5 0 min 7,39 klux 0,00 min -11,5 C -10,6 C
13.12.2010 09:16 -10,7 C 93 % 1020 hPa 0,0 l/m 0,0 km/h (0 Bft) N 5 0 min 12,5 klux 0,00 min -11,6 C -10,7 C
13.12.2010 09:32 -10,4 C 93 % 1020 hPa 0,0 l/m 0,4 km/h (0 Bft) N 5 0 min 17,5 klux 0,00 min -11,3 C -10,4 C
13.12.2010 09:47 -9,9 C 94 % 1020 hPa 0,0 l/m 0,0 km/h (0 Bft) N 5 0 min 21,7 klux 0,00 min -10,7 C -9,9 C
13.12.2010 10:02 -9,4 C 94 % 1020 hPa 0,0 l/m 0,0 km/h (0 Bft) N 5 0 min 27,3 klux 0,00 min -10,2 C -9,4 C
13.12.2010 10:17 -9,0 C 94 % 1020 hPa 0,0 l/m 0,0 km/h (0 Bft) N 5 0 min 15,1 klux 0,00 min -9,8 C -9,0 C
13.12.2010 10:31 -8,7 C 94 % 1020 hPa 0,0 l/m 0,0 km/h (0 Bft) N 5 0 min 14,0 klux 0,00 min -9,5 C -8,7 C
13.12.2010 10:46 -8,3 C 94 % 1020 hPa 0,0 l/m 3,1 km/h (1 Bft) N 10 0 min 15,9 klux 0,00 min -9,1 C -8,3 C
13.12.2010 11:01 -7,7 C 94 % 1020 hPa 0,0 l/m 0,0 km/h (0 Bft) N 10 0 min 14,5 klux 0,00 min -8,5 C -7,7 C
13.12.2010 11:17 -7,2 C 93 % 1020 hPa 0,0 l/m 0,0 km/h (0 Bft) N 10 0 min 22,9 klux 0,00 min -8,1 C -7,2 C
13.12.2010 11:32 -6,7 C 93 % 1020 hPa 0,0 l/m 0,0 km/h (0 Bft) N 10 0 min 21,8 klux 0,00 min -7,6 C -6,7 C
13.12.2010 11:47 -6,1 C 94 % 1020 hPa 0,0 l/m 0,0 km/h (0 Bft) N 10 0 min 20,2 klux 0,00 min -6,9 C -6,1 C
13.12.2010 12:01 -5,7 C 93 % 1020 hPa 0,0 l/m 0,0 km/h (0 Bft) N 10 0 min 18,9 klux 0,00 min -6,6 C -5,7 C
13.12.2010 12:16 -5,5 C 92 % 1020 hPa 0,0 l/m 0,0 km/h (0 Bft) N 10 0 min 19,2 klux 0,00 min -6,6 C -5,5 C
13.12.2010 12:32 -5,3 C 91 % 1020 hPa 0,0 l/m 0,7 km/h (0 Bft) N 10 0 min 18,7 klux 0,00 min -6,5 C -5,3 C
13.12.2010 12:47 -4,8 C 92 % 1020 hPa 0,0 l/m 5,5 km/h (1 Bft) N 5 0 min 28,9 klux 0,00 min -5,9 C -4,8 C
13.12.2010 13:02 -4,3 C 91 % 1020 hPa 0,0 l/m 3,3 km/h (1 Bft) N 5 0 min 41,1 klux 0,00 min -5,5 C -4,3 C
13.12.2010 13:16 -4,0 C 89 % 1020 hPa 0,0 l/m 1,9 km/h (1 Bft) N 5 0 min 41,5 klux 0,00 min -5,5 C -4,0 C
13.12.2010 13:31 -4,1 C 89 % 1020 hPa 0,0 l/m 3,6 km/h (1 Bft) N 5 0 min 15,5 klux 0,00 min -5,6 C -4,1 C
13.12.2010 13:46 -4,0 C 88 % 1020 hPa 0,0 l/m 0,1 km/h (0 Bft) N 5 0 min 18,1 klux 0,00 min -5,7 C -4,0 C
13.12.2010 14:01 -4,0 C 87 % 1019 hPa 0,0 l/m 0,2 km/h (0 Bft) N 5 0 min 31,6 klux 0,00 min -5,8 C -4,0 C
13.12.2010 14:17 -4,1 C 86 % 1019 hPa 0,0 l/m 3,5 km/h (1 Bft) N 5 0 min 13,6 klux 0,00 min -6,1 C -4,1 C
13.12.2010 14:32 -4,2 C 86 % 1019 hPa 0,0 l/m 0,0 km/h (0 Bft) N 5 0 min 11,7 klux 0,00 min -6,2 C -4,2 C
13.12.2010 14:47 -4,2 C 86 % 1019 hPa 0,0 l/m 8,9 km/h (2 Bft) N 5 0 min 10,4 klux 0,00 min -6,2 C -7,0 C
13.12.2010 15:01 -4,3 C 87 % 1019 hPa 0,0 l/m 7,0 km/h (2 Bft) N 5 0 min 9,0 klux 0,00 min -6,1 C -5,0 C
13.12.2010 15:16 -4,5 C 87 % 1019 hPa 0,0 l/m 6,3 km/h (2 Bft) N 10 0 min 7,28 klux 0,00 min -6,3 C -4,5 C
13.12.2010 15:31 -4,9 C 87 % 1019 hPa 0,0 l/m 2,9 km/h (1 Bft) N 10 0 min 5,89 klux 0,00 min -6,7 C -4,9 C
13.12.2010 15:47 -5,0 C 88 % 1019 hPa 0,0 l/m 0,3 km/h (0 Bft) N 10 0 min 4,11 klux 0,00 min -6,7 C -5,0 C
13.12.2010 16:02 -5,3 C 88 % 1019 hPa 0,0 l/m 4,0 km/h (1 Bft) N 5 0 min 2,70 klux 0,00 min -7,0 C -5,3 C
13.12.2010 16:17 -5,6 C 88 % 1019 hPa 0,0 l/m 0,0 km/h (0 Bft) N 5 0 min 1,64 klux 0,00 min -7,3 C -5,6 C
13.12.2010 16:31 -5,9 C 89 % 1019 hPa 0,0 l/m 0,2 km/h (0 Bft) N 5 0 min 820 lux 0,00 min -7,4 C -5,9 C
13.12.2010 16:46 -6,2 C 89 % 1019 hPa 0,0 l/m 6,3 km/h (2 Bft) N 5 0 min 373 lux 0,00 min -7,7 C -6,2 C
13.12.2010 17:01 -6,5 C 89 % 1019 hPa 0,0 l/m 0,0 km/h (0 Bft) N 5 0 min 120 lux 0,00 min -8,0 C -6,5 C
13.12.2010 17:16 -6,9 C 89 % 1019 hPa 0,0 l/m 0,4 km/h (0 Bft) N 5 0 min 27 lux 0,00 min -8,4 C -6,9 C
13.12.2010 17:32 -7,2 C 89 % 1019 hPa 0,0 l/m 3,6 km/h (1 Bft) N 5 0 min 6 lux 0,00 min -8,7 C -7,2 C
13.12.2010 17:47 -7,4 C 90 % 1018 hPa 0,0 l/m 5,3 km/h (1 Bft) N 5 0 min 0 lux 0,00 min -8,8 C -7,4 C
13.12.2010 18:02 -7,7 C 90 % 1018 hPa 0,0 l/m 2,9 km/h (1 Bft) N 5 0 min 0 lux 0,00 min -9,0 C -7,7 C
13.12.2010 18:16 -8,0 C 90 % 1018 hPa 0,0 l/m 3,8 km/h (1 Bft) N 5 0 min 0 lux 0,00 min -9,3 C -8,0 C
13.12.2010 18:31 -8,4 C 90 % 1018 hPa 0,0 l/m 0,9 km/h (0 Bft) N 5 0 min 0 lux 0,00 min -9,7 C -8,4 C
13.12.2010 18:46 -8,7 C 90 % 1018 hPa 0,0 l/m 0,1 km/h (0 Bft) N 5 0 min 0 lux 0,00 min -10,0 C -8,7 C
13.12.2010 19:02 -8,8 C 90 % 1018 hPa 0,0 l/m 3,1 km/h (1 Bft) N 5 0 min 0 lux 0,00 min -10,1 C -8,8 C
13.12.2010 19:17 -8,9 C 90 % 1018 hPa 0,0 l/m 3,3 km/h (1 Bft) N 5 0 min 0 lux 0,00 min -10,2 C -8,9 C
13.12.2010 19:32 -8,9 C 90 % 1018 hPa 0,0 l/m 5,8 km/h (2 Bft) N 5 0 min 0 lux 0,00 min -10,2 C -8,9 C
13.12.2010 19:47 -8,7 C 91 % 1018 hPa 0,0 l/m 0,6 km/h (0 Bft) N 5 0 min 0 lux 0,00 min -9,9 C -8,7 C
13.12.2010 20:01 -8,4 C 91 % 1018 hPa 0,0 l/m 7,6 km/h (2 Bft) N 5 0 min 0 lux 0,00 min -9,6 C -10,0 C
13.12.2010 20:16 -8,1 C 90 % 1018 hPa 0,0 l/m 4,8 km/h (1 Bft) N 5 0 min 0 lux 0,00 min -9,4 C -8,1 C
13.12.2010 20:31 -7,9 C 90 % 1018 hPa 0,0 l/m 6,7 km/h (2 Bft) N 5 0 min 0 lux 0,00 min -9,2 C -8,3 C
13.12.2010 20:47 -7,8 C 90 % 1017 hPa 0,0 l/m 2,7 km/h (1 Bft) N 5 0 min 0 lux 0,00 min -9,1 C -7,8 C
13.12.2010 21:02 -7,5 C 90 % 1017 hPa 0,0 l/m 13,4 km/h (3 Bft) N 5 0 min 0 lux 0,00 min -8,8 C -14,8 C
13.12.2010 21:17 -7,2 C 89 % 1017 hPa 0,0 l/m 19,6 km/h (3 Bft) N 5 0 min 0 lux 0,00 min -8,7 C -18,7 C
13.12.2010 21:31 -7,2 C 89 % 1017 hPa 0,0 l/m 20,8 km/h (4 Bft) N 5 0 min 0 lux 0,00 min -8,7 C -19,4 C
13.12.2010 21:46 -7,1 C 90 % 1017 hPa 0,0 l/m 17,1 km/h (3 Bft) N 5 0 min 0 lux 0,00 min -8,5 C -17,0 C
13.12.2010 22:01 -7,1 C 91 % 1016 hPa 0,0 l/m 14,3 km/h (3 Bft) N 5 0 min 0 lux 0,00 min -8,3 C -15,1 C
13.12.2010 22:16 -7,2 C 92 % 1016 hPa 0,0 l/m 21,6 km/h (4 Bft) N 5 0 min 0 lux 0,00 min -8,3 C -19,8 C
13.12.2010 22:32 -7,2 C 92 % 1016 hPa 0,0 l/m 21,6 km/h (4 Bft) N 5 0 min 0 lux 0,00 min -8,3 C -19,8 C
13.12.2010 22:47 -7,1 C 93 % 1016 hPa 0,3 l/m 15,8 km/h (3 Bft) N 5 0 min 0 lux 15,00 min -8,0 C -16,2 C
13.12.2010 23:02 -7,0 C 93 % 1016 hPa 0,0 l/m 12,3 km/h (3 Bft) N 5 0 min 0 lux 0,00 min -7,9 C -13,3 C
13.12.2010 23:16 -6,3 C 94 % 1016 hPa 0,0 l/m 15,6 km/h (3 Bft) N 5 0 min 0 lux 0,00 min -7,1 C -15,0 C
13.12.2010 23:31 -5,9 C 94 % 1016 hPa 0,3 l/m 13,3 km/h (3 Bft) N 5 0 min 0 lux 15,00 min -6,7 C -12,9 C
13.12.2010 23:46 -5,5 C 95 % 1016 hPa 0,0 l/m 13,0 km/h (3 Bft) N 5 0 min 0 lux 0,00 min -6,2 C -12,2 C
_ Min-Zeit 09:16 14:17 22:01 - 09:16 - - - - - 09:16 00:46
Minimum _ -10,7 C 86 % 1016 hPa - 0,0 km/h (0 Bft) - - - - - -11,6 C -22,8 C
_ Max-Zeit 13:16 07:16 07:31 22:47 00:46 - - 00:01 13:16 22:47 13:16 13:16
Maximum _ -4,0 C 95 % 1020 hPa 0,3 l/m 35,1 km/h
N (5 Bft)
- - 0 min 41,5 klux 15,00 min -5,5 C -4,0 C
Durchschnitt _ -7,2 C 90 % 1019 hPa #0,6 l/m 10,5 km/h (2 Bft) N - #0 min. 5,36 klux #30 min. -8,5 C -12,3 C